Theta_e
324 324 323 323 323 323 322 322 322 323 324 325 326 324 323 323 323 323 323 323 324 325 324 322 321 321 322 322 323 322 323 323 322 321 321 321 324 325 324 324 324 322 323 323 324 332 340 337 337 340 341 342 340 340 340 337 339 339 338 334 329 330 332 336 341 341 340 341 342 343 345 343 342 343 345 346 346 346 345 345 344 344 346 346 347 348 349 351
324 324 324 323 323 323 323 322 322 322 323 324 325 324 323 323 323 323 324 324 325 325 324 323 321 321 322 323 323 322 323 322 322 322 321 321 322 323 323 323 322 322 323 323 327 336 338 335 336 339 341 339 338 337 337 337 337 338 336 332 331 333 336 338 339 340 341 341 342 344 344 343 342 345 348 347 347 347 344 346 347 347 347 347 348 349 349 350
323 323 323 322 322 322 322 323 323 323 323 323 324 325 324 323 323 324 325 325 325 324 322 321 321 322 323 323 323 323 323 322 323 323 320 321 321 321 322 322 322 321 323 324 331 336 335 335 335 337 339 338 336 334 335 336 334 335 334 334 333 335 337 339 340 340 341 342 343 343 343 343 342 344 347 344 345 346 346 346 348 348 347 347 348 349 348 350
322 321 322 322 322 322 321 322 322 323 323 323 323 325 324 323 323 325 325 326 324 322 319 320 321 322 323 324 323 323 323 325 328 325 322 323 321 321 322 321 321 322 322 326 333 336 333 335 335 337 339 337 337 334 334 335 334 334 334 334 334 335 337 338 340 339 341 341 341 342 341 343 342 343 345 344 345 345 347 347 347 348 347 347 348 347 349 350
320 320 320 320 321 321 321 322 322 322 322 323 323 324 324 324 324 325 326 326 323 319 318 320 320 322 323 323 323 323 324 326 331 330 326 325 323 321 321 322 321 322 322 327 336 335 332 332 333 336 338 338 336 333 334 335 333 334 336 336 336 337 338 339 339 338 340 341 341 341 341 342 344 344 344 345 348 348 345 348 348 348 347 347 346 346 348 349
319 319 319 319 320 321 320 321 321 322 322 323 323 323 324 323 325 326 326 325 321 318 318 318 318 320 321 322 323 323 324 326 329 334 328 325 325 321 321 321 321 322 322 330 337 336 331 331 332 335 337 338 335 332 334 333 332 333 335 338 338 338 339 338 338 339 339 340 342 341 341 345 345 346 345 345 348 350 345 347 347 347 347 346 346 346 347 348
318 318 318 318 319 320 320 320 321 321 322 322 323 324 324 323 325 326 326 325 320 317 317 317 317 317 318 321 322 322 325 326 326 333 330 325 324 321 321 321 321 322 323 330 335 334 331 329 333 336 337 336 333 333 333 333 334 334 334 337 337 338 339 338 338 339 339 340 341 342 343 345 345 346 347 347 348 349 347 347 346 346 346 345 346 347 346 347
317 317 318 318 318 319 320 320 320 321 321 322 323 323 324 324 325 326 325 324 320 316 316 318 317 316 316 319 322 325 327 326 325 329 329 325 322 320 321 320 322 323 322 330 334 332 330 329 334 336 336 334 333 333 333 333 335 335 335 337 337 337 339 338 339 339 338 339 340 343 343 343 344 346 347 347 348 347 347 346 345 346 345 345 346 347 347 347
317 317 317 317 318 318 319 320 321 321 321 322 322 323 324 324 325 326 326 324 321 317 317 321 318 315 315 316 322 328 330 328 329 329 328 325 321 320 321 321 322 323 323 329 334 332 329 330 334 337 336 334 333 333 332 333 334 336 336 337 338 339 339 338 339 339 340 340 342 343 341 342 343 344 346 346 347 347 346 346 346 346 345 346 347 347 347 347
316 316 317 317 317 317 318 319 320 321 321 322 322 322 324 324 325 326 325 324 322 318 318 322 320 314 313 315 321 326 330 333 332 330 328 323 321 320 321 323 322 323 327 330 332 331 329 332 335 336 335 333 333 333 331 333 334 336 337 337 338 339 339 339 339 338 338 340 341 340 340 342 342 343 345 347 347 346 346 346 345 346 346 346 347 348 348 348
315 315 316 316 317 317 318 319 320 321 321 321 322 322 323 324 325 326 325 325 322 318 318 322 320 314 313 318 324 327 329 332 332 332 330 322 320 320 322 326 325 325 328 330 331 330 329 333 334 336 333 332 333 332 332 333 336 336 337 337 337 339 340 339 339 338 338 340 340 341 340 342 342 342 345 346 346 346 346 346 346 347 347 347 349 349 349 349
314 314 315 315 315 316 317 318 319 320 321 322 321 321 323 324 325 326 325 325 322 320 318 322 320 313 314 323 327 327 331 332 332 333 331 324 321 320 322 327 327 327 328 329 329 329 329 332 334 334 333 332 331 331 332 335 337 336 337 336 335 338 339 338 340 338 338 338 341 342 339 341 342 341 344 347 346 347 346 346 346 347 347 349 350 350 351 350
313 313 314 314 315 315 316 318 318 320 321 321 322 322 322 323 325 326 326 325 323 320 318 320 321 314 318 328 329 324 330 332 331 331 332 328 322 322 323 327 328 327 328 328 329 328 329 333 335 334 332 332 332 332 332 335 336 336 336 336 335 337 337 339 341 338 339 339 341 341 334 336 342 342 344 345 347 347 347 346 348 348 348 349 349 349 352 351
311 312 313 314 314 314 315 316 318 320 321 322 322 321 322 323 324 325 326 326 324 322 319 320 323 320 321 330 329 326 327 331 332 331 332 331 324 324 324 326 327 326 328 328 328 328 329 333 333 334 333 331 333 333 332 335 336 337 336 336 337 333 333 339 339 338 340 338 342 340 332 335 343 343 343 343 346 347 347 348 348 348 348 348 348 349 351 351
310 311 312 312 313 313 314 315 317 319 321 322 322 322 323 322 324 325 325 326 326 323 320 319 324 326 327 331 332 329 326 330 334 330 331 331 327 324 324 326 327 325 327 327 327 327 329 332 332 333 333 331 333 333 332 334 335 336 333 331 337 333 332 340 339 340 340 339 343 339 333 337 342 342 344 343 344 347 349 349 348 349 348 348 348 350 351 351
310 310 311 312 313 313 313 314 316 319 321 322 322 323 322 322 324 325 325 327 327 324 320 325 334 334 334 334 333 331 325 328 330 329 330 330 326 325 324 326 326 326 326 327 328 328 330 334 333 332 331 332 332 332 333 332 331 336 333 327 332 333 333 337 338 341 340 339 341 339 336 339 342 343 344 343 342 344 346 347 350 350 348 350 350 351 352 352
309 310 310 311 311 312 312 313 314 317 321 322 322 323 323 323 323 324 327 328 326 323 320 329 339 336 335 333 332 332 326 326 328 328 330 330 327 326 326 327 327 327 326 327 329 331 331 333 333 331 331 332 331 332 329 324 324 330 334 329 332 334 332 333 337 339 340 339 339 339 339 340 340 342 344 344 343 343 344 345 350 351 349 351 351 351 353 354
309 309 309 310 311 312 312 312 313 316 321 322 320 322 323 322 323 325 329 327 325 325 324 326 331 332 333 331 332 333 327 326 329 329 328 329 327 326 326 326 326 326 327 328 330 332 333 333 333 330 331 330 332 331 326 323 326 327 329 328 329 332 333 334 336 338 340 340 340 339 339 341 340 341 344 343 343 344 343 344 347 348 350 351 351 350 353 354
309 309 309 310 310 311 311 311 312 314 320 322 321 322 324 324 329 331 330 327 327 330 331 329 329 330 330 329 332 331 327 328 329 328 328 328 327 326 326 325 325 326 326 328 331 332 332 333 331 327 329 329 331 332 328 330 333 331 331 329 328 329 332 338 339 338 340 339 339 340 339 340 340 340 342 343 345 343 343 344 344 346 347 348 350 352 353 352
308 309 309 310 310 311 311 311 312 313 317 321 320 321 324 330 338 337 331 330 333 333 332 331 331 330 331 329 330 329 328 330 329 328 328 327 327 326 325 325 326 326 326 329 331 333 332 331 329 327 329 331 330 331 332 335 335 334 334 330 331 328 330 340 341 338 340 337 338 342 340 341 341 340 342 342 343 343 341 344 343 345 345 345 350 352 352 350
308 309 309 309 310 311 311 312 312 312 315 319 318 319 324 330 334 333 331 333 333 331 332 333 331 331 332 329 328 328 329 331 329 328 327 327 328 325 324 325 326 327 328 329 330 332 332 328 328 329 331 331 331 332 332 334 334 334 332 329 329 330 330 338 339 338 339 337 337 342 341 341 342 340 340 341 342 342 340 342 343 344 344 345 349 351 351 351
307 308 309 309 310 311 311 312 311 312 316 318 318 319 323 327 328 328 329 329 329 330 331 332 331 330 330 329 329 329 330 330 328 327 327 327 328 327 325 325 325 327 328 329 330 330 329 328 329 330 331 331 331 331 333 333 334 333 331 328 326 329 332 334 338 338 338 336 336 341 341 341 343 341 341 341 340 341 341 342 342 343 344 345 348 349 350 350
307 308 308 309 310 310 311 312 312 314 317 320 321 322 324 326 326 328 328 328 329 329 329 332 331 329 330 330 330 331 331 329 328 328 327 326 328 327 326 326 326 327 327 328 330 327 325 327 331 331 331 331 331 331 331 331 332 332 330 326 324 329 330 327 333 339 337 336 336 339 340 341 344 340 341 341 340 341 341 341 342 341 344 344 345 348 349 349
307 307 308 309 309 310 312 311 315 321 323 322 322 323 325 324 324 328 329 329 329 329 328 331 331 329 331 330 330 330 330 330 328 328 327 326 328 327 326 326 326 328 328 328 330 328 327 329 331 331 330 331 330 330 331 330 328 330 330 328 326 329 330 329 334 338 337 335 337 338 334 336 344 343 343 342 339 341 342 341 342 342 343 343 344 347 347 348
307 307 307 308 309 310 311 312 319 325 325 322 321 323 325 325 327 329 329 330 329 329 329 329 330 330 330 329 330 330 328 328 329 328 327 326 327 327 327 326 326 327 328 327 329 330 330 331 331 331 331 331 330 330 331 328 325 326 330 330 330 332 333 334 337 335 329 328 334 335 328 330 342 343 343 344 341 340 341 341 341 342 342 343 343 345 346 347
307 307 307 308 308 310 311 314 321 324 324 323 321 324 326 328 329 328 330 331 328 328 329 329 330 329 329 329 330 329 327 328 329 328 328 327 327 328 327 327 329 328 329 329 328 330 332 333 331 330 330 330 330 330 330 331 324 322 328 332 332 333 333 333 334 330 323 324 333 335 328 326 338 342 345 351 350 344 341 341 341 342 343 343 343 344 346 347
307 307 308 307 308 308 310 312 315 317 319 320 319 321 324 325 326 327 331 327 324 328 329 327 328 327 329 330 330 329 325 326 329 328 328 327 327 328 327 328 329 328 330 330 325 326 331 332 332 330 330 330 329 328 330 331 324 323 330 332 331 331 331 331 332 328 326 328 331 334 330 325 332 343 348 350 351 347 345 342 341 343 344 344 343 343 345 346
307 307 307 308 308 307 308 310 311 312 315 317 317 320 322 323 323 327 330 324 325 328 329 327 328 328 328 330 330 329 327 328 328 328 329 328 327 328 327 328 328 327 330 328 322 326 331 332 332 330 330 329 329 329 331 331 327 327 332 332 332 332 331 331 330 328 329 328 323 327 331 323 325 339 349 348 348 348 345 343 342 343 343 343 344 344 344 345
307 307 307 308 308 307 308 309 310 312 314 315 315 318 321 323 323 326 329 328 330 327 329 328 328 328 328 330 331 329 328 328 328 328 330 328 327 329 328 329 329 328 330 329 326 328 331 332 332 331 329 329 331 331 332 330 330 330 332 334 332 331 331 332 329 326 325 324 319 323 329 323 322 334 346 346 343 344 344 343 345 344 343 344 344 344 344 344
307 307 307 308 308 309 308 309 313 316 317 317 317 320 322 323 324 325 326 330 330 327 329 327 327 329 329 330 330 330 328 328 328 329 329 328 329 330 329 331 331 329 330 330 329 331 332 332 331 331 330 330 331 332 331 331 331 331 332 333 332 331 331 330 329 326 322 321 321 323 326 325 322 329 339 341 340 342 343 343 344 344 343 344 344 345 344 345
308 308 307 307 308 308 307 310 317 319 320 321 320 321 323 323 324 324 326 331 325 327 328 326 328 328 329 330 330 329 328 328 329 329 328 328 328 329 329 329 328 328 327 327 329 330 330 329 330 331 331 332 331 331 331 332 331 331 332 331 327 326 327 325 324 324 320 319 322 325 328 326 322 326 334 340 342 342 342 343 343 344 343 344 344 344 345 345
308 308 308 308 308 308 308 311 315 316 317 319 318 319 322 322 322 322 329 328 321 325 329 327 328 328 328 330 329 328 326 327 328 328 328 326 326 328 328 327 327 324 320 322 325 327 329 330 330 331 332 331 331 329 328 331 331 331 330 327 322 320 321 320 320 320 319 320 324 327 328 325 323 328 336 340 342 343 341 340 342 344 345 343 344 344 344 346
308 309 309 309 308 308 310 311 312 312 312 314 315 319 322 320 320 323 327 327 322 325 329 329 329 328 328 328 328 327 326 327 328 328 327 327 326 327 327 329 329 324 320 322 321 320 323 329 330 330 330 331 331 327 325 327 330 329 326 323 320 319 319 320 320 320 320 321 324 327 326 322 322 332 338 338 338 339 338 337 339 343 344 343 343 344 343 344
308 308 309 309 309 309 311 310 311 310 310 314 316 319 321 319 322 325 327 328 326 328 329 328 328 328 328 328 328 327 325 326 328 329 328 327 325 326 327 328 329 328 325 323 321 319 318 322 328 329 329 331 330 329 328 328 330 329 329 327 322 321 320 320 320 320 320 321 323 325 324 321 321 331 338 336 337 338 338 338 337 340 342 342 344 345 344 344
308 308 308 309 310 311 311 311 311 310 311 316 317 318 320 319 321 324 327 330 329 329 329 329 329 327 326 328 329 328 327 327 329 328 328 327 325 324 326 327 328 330 327 321 321 323 318 320 329 330 330 330 330 331 334 331 328 328 330 328 323 325 326 322 322 321 321 320 321 323 323 325 330 336 338 335 337 338 337 337 337 337 339 342 345 346 346 345
307 308 308 309 311 312 311 312 310 310 314 319 318 317 320 322 324 325 329 331 329 330 329 328 327 325 322 325 328 329 327 327 328 328 327 327 326 326 328 328 327 328 327 324 323 323 318 321 330 332 330 332 330 332 333 330 327 328 327 323 325 332 330 322 321 322 321 318 320 322 322 327 331 334 336 336 335 337 336 335 335 337 338 341 346 349 348 347
306 307 307 310 313 315 318 317 311 312 318 320 317 319 323 324 326 327 329 330 330 330 329 324 324 324 321 321 325 327 328 326 327 326 324 325 325 326 328 328 327 327 329 329 327 327 322 321 329 332 329 331 332 331 332 333 330 327 323 325 330 331 331 327 321 320 320 318 320 321 320 323 324 327 335 338 336 336 335 335 336 338 338 338 342 346 348 349
305 308 310 311 313 316 323 322 316 317 320 319 319 322 324 324 326 325 327 330 329 330 328 324 325 325 323 321 323 328 328 324 325 326 324 324 325 326 328 328 328 328 329 330 328 330 327 321 326 332 330 330 334 330 329 331 333 331 328 331 330 323 322 324 321 319 319 319 320 320 320 321 321 325 333 337 336 337 338 337 337 336 339 339 339 341 346 350
309 317 321 319 315 317 324 324 320 322 320 316 319 323 324 324 326 326 327 330 329 329 329 328 328 327 324 324 324 328 328 324 325 325 323 323 324 326 328 327 328 329 329 331 330 332 330 322 321 330 332 330 331 328 324 325 331 332 331 331 330 325 323 323 321 320 319 319 321 321 320 322 326 331 335 337 339 341 339 342 339 336 338 340 339 338 343 350
314 322 325 324 321 320 324 324 322 323 320 317 320 322 324 324 325 326 327 328 330 329 329 331 330 327 327 326 326 327 329 327 326 326 323 325 325 326 328 328 328 329 329 332 332 331 332 326 320 327 332 328 326 327 325 325 328 327 326 325 326 327 326 325 324 322 320 320 320 321 320 323 333 341 341 339 340 338 339 342 342 338 335 337 341 338 342 349
313 320 322 324 324 322 324 324 323 323 320 319 321 322 323 325 323 326 326 328 330 329 330 331 331 330 329 328 328 327 329 328 327 326 325 326 325 324 329 329 329 329 328 330 332 329 331 328 322 323 325 323 326 330 330 329 330 328 326 324 325 326 324 322 321 323 322 321 320 321 320 323 334 344 342 339 338 335 335 337 339 338 333 335 339 338 341 347
314 320 321 325 326 325 325 323 323 323 320 320 322 322 324 324 324 325 326 329 330 330 331 331 329 331 331 330 330 329 329 328 327 327 326 327 327 327 329 330 330 331 331 329 330 331 332 330 324 322 324 326 330 332 331 330 331 332 329 329 329 329 324 319 319 322 322 322 322 321 319 324 337 343 340 340 338 335 334 334 336 336 336 336 336 338 342 345
320 322 322 326 327 326 325 322 322 323 321 321 323 323 324 325 325 325 326 328 329 329 330 330 330 331 331 331 332 331 329 327 327 328 327 328 330 329 331 332 330 331 332 329 330 333 332 329 324 322 327 331 331 332 332 330 331 329 328 331 329 328 328 325 326 326 323 321 321 320 319 325 339 346 343 340 338 335 335 335 335 335 336 336 337 338 342 347
318 317 319 325 326 325 323 322 322 322 321 322 322 323 324 324 324 324 326 327 329 328 329 328 329 330 330 330 332 332 330 326 326 328 328 328 329 330 331 332 332 331 332 330 331 332 328 328 325 320 322 325 325 327 328 328 329 328 329 332 329 330 331 328 330 332 325 322 323 321 320 328 340 349 344 337 335 336 336 336 335 337 337 337 337 338 343 349
318 318 317 320 324 325 324 323 323 323 323 323 323 323 324 324 324 325 326 328 328 328 328 328 328 328 330 331 330 332 331 328 327 328 329 328 329 330 332 332 332 331 330 332 334 331 328 329 329 320 317 318 319 321 322 324 327 327 328 330 330 331 331 327 328 327 321 323 325 322 323 332 342 344 340 336 336 336 337 336 335 336 336 337 338 340 344 351
319 322 321 321 323 325 323 324 324 324 325 324 324 325 323 324 324 325 327 328 328 329 329 329 328 328 328 330 330 331 331 331 329 330 331 330 329 330 330 332 332 332 335 338 334 332 331 331 333 329 323 321 322 328 331 329 326 325 325 328 330 331 332 330 327 323 323 326 325 326 332 333 337 338 338 339 337 337 338 337 335 336 336 337 339 341 347 355
319 323 325 326 326 324 323 324 322 322 325 326 327 327 325 324 325 325 329 328 328 329 328 328 329 328 327 330 330 330 330 331 332 331 331 329 329 330 331 330 331 333 337 339 333 332 332 327 329 336 331 327 329 333 334 331 327 325 325 326 328 330 332 329 325 328 335 329 322 335 346 335 333 338 339 341 344 343 341 339 336 336 336 337 338 340 346 353
322 322 323 326 326 325 324 323 322 321 322 324 327 329 328 327 325 325 327 327 327 328 327 328 328 327 327 329 328 328 330 330 331 332 333 331 330 330 329 329 332 334 334 332 331 332 330 325 327 331 328 329 331 330 330 331 331 329 329 328 329 330 329 327 326 331 340 331 325 340 349 339 336 338 337 340 344 341 339 338 336 335 336 336 337 340 345 350
318 316 319 321 323 324 325 325 327 325 323 325 327 327 328 328 328 327 326 327 327 326 327 327 327 327 327 329 329 332 332 329 328 334 339 338 335 335 334 329 331 335 332 330 332 333 328 326 330 329 326 327 330 330 330 331 329 329 331 330 331 331 329 328 329 329 336 336 334 341 346 341 337 337 337 339 338 335 337 338 336 336 336 336 336 338 342 348
314 313 316 319 320 323 325 327 329 328 327 328 328 328 328 328 329 329 327 326 326 327 327 327 326 327 327 328 329 330 331 331 333 336 338 338 337 337 336 332 330 333 331 328 331 333 327 326 331 330 324 325 330 330 329 330 329 328 329 331 331 330 329 329 330 329 332 334 334 337 341 340 337 339 340 337 336 337 337 337 337 337 335 334 334 334 337 344
313 310 312 316 320 322 324 327 328 328 328 329 329 329 329 329 330 329 327 327 326 327 328 327 327 328 328 328 329 329 331 333 336 336 336 335 335 335 334 334 331 331 331 331 331 332 329 328 330 330 322 321 326 329 328 329 329 325 325 329 329 329 328 329 331 332 331 334 336 334 332 333 335 341 339 335 338 340 338 338 338 336 335 335 334 333 334 339
312 307 309 315 320 322 322 325 326 327 327 328 329 328 328 328 328 328 329 329 328 327 330 330 331 331 330 331 332 333 333 334 333 334 334 333 333 334 333 334 332 332 332 332 330 332 331 329 327 326 321 319 326 329 327 327 324 321 324 329 329 329 331 331 332 334 335 336 336 331 330 334 339 340 337 337 338 340 340 338 336 336 339 339 339 339 341 339
Wind_Speed
20 20 20 20 20 19 20 20 20 19 18 18 17 18 18 17 18 17 18 18 19 19 19 19 18 18 18 17 17 16 16 17 18 20 23 20 14 15 18 16 13 11 10 8 6 7 8 9 8 7 8 10 11 10 8 6 8 6 5 2 2 3 5 7 11 8 8 11 10 11 11 11 12 13 13 10 12 13 11 14 17 19 20 22 24 26 25 23
20 20 20 20 20 19 20 20 20 20 19 19 18 18 18 18 18 17 19 20 20 20 19 18 17 16 16 16 16 14 16 16 18 22 24 20 16 19 19 18 15 11 11 9 8 9 10 9 6 6 10 10 8 5 6 7 5 5 2 2 4 5 6 7 11 11 10 11 10 11 11 12 12 15 14 7 10 14 14 17 20 23 24 25 26 24 23 23
20 20 20 21 20 20 20 20 20 20 20 20 19 18 18 19 18 18 20 21 22 21 18 17 15 15 14 14 14 13 14 15 19 25 22 17 18 20 18 18 16 12 11 9 9 10 11 11 5 7 10 9 6 6 6 5 5 4 1 2 4 6 6 8 11 12 12 12 12 11 11 11 12 15 15 8 8 11 12 15 18 22 25 25 25 23 22 21
20 20 21 21 21 20 20 20 20 20 20 20 20 19 19 19 18 18 20 22 22 20 17 14 13 12 12 12 13 11 12 13 15 19 16 13 17 19 18 18 16 13 10 9 10 10 11 12 7 8 10 10 9 7 6 4 3 1 5 2 6 6 6 10 11 12 13 13 12 11 10 10 10 12 14 11 8 8 11 15 19 22 25 26 24 23 21 20
20 20 21 21 21 21 21 20 20 20 20 20 20 20 19 19 19 19 21 22 21 17 14 12 11 10 10 11 11 10 9 6 3 6 10 12 14 17 19 18 15 12 10 11 10 11 12 12 11 11 10 11 7 5 8 4 2 2 7 3 7 7 7 12 11 11 12 12 11 10 10 11 11 11 15 15 3 3 12 17 21 23 24 25 24 23 21 19
20 21 21 21 21 21 21 21 21 20 20 20 20 20 19 19 18 19 21 21 18 15 12 10 9 8 9 10 11 10 8 4 4 4 6 12 12 16 19 17 15 12 12 12 11 12 12 12 14 13 11 12 7 5 8 3 5 1 7 5 8 9 9 12 10 10 10 12 11 11 12 12 13 11 16 18 6 6 14 20 22 23 23 23 23 22 21 19
21 21 21 21 21 21 21 21 21 20 20 21 20 20 20 19 18 19 21 19 16 13 11 10 9 8 8 9 11 11 13 15 11 7 5 9 12 15 18 17 15 14 16 14 13 13 12 13 15 14 13 11 9 7 8 4 2 2 6 6 9 10 10 10 10 10 10 11 12 12 13 12 13 11 12 17 14 11 18 21 22 23 23 22 21 20 20 19
21 21 21 21 21 21 21 21 22 21 21 21 20 20 19 19 18 19 20 17 13 12 10 9 9 9 9 9 10 11 18 21 14 10 9 9 12 16 18 17 16 17 18 16 15 14 12 16 16 15 13 6 6 5 6 4 4 7 6 8 10 10 11 11 11 11 10 11 13 15 15 13 14 13 12 13 15 17 19 21 22 23 22 21 20 19 19 18
21 22 21 21 21 21 21 22 22 21 21 21 21 20 19 19 18 19 20 16 12 12 10 10 11 9 9 11 9 11 14 14 10 9 11 12 12 17 19 18 18 19 18 16 16 15 14 16 17 17 12 6 5 3 3 6 5 10 6 9 10 10 12 11 11 11 11 13 15 15 15 15 15 14 12 12 15 18 19 20 21 21 20 19 19 18 18 17
22 22 22 22 21 21 22 22 22 21 21 21 21 20 19 19 18 18 20 16 12 11 10 10 11 9 8 10 10 9 6 6 6 9 12 13 13 19 19 17 18 19 17 16 16 18 17 16 16 16 13 9 7 6 5 9 6 12 9 11 11 9 11 11 12 13 12 13 15 14 13 15 15 11 9 12 15 16 19 19 19 19 18 18 18 18 16 16
22 22 22 22 22 22 22 22 22 21 21 21 22 20 19 19 18 18 20 17 12 10 10 9 10 9 7 8 12 10 3 4 5 6 9 11 15 21 19 18 17 19 18 16 18 18 19 18 14 12 7 4 7 6 5 8 11 13 11 12 12 10 11 11 11 13 12 12 14 14 14 14 13 10 9 13 14 15 18 18 18 17 17 17 17 17 15 14
23 23 23 23 23 22 22 22 22 22 21 21 22 21 19 19 18 18 19 18 13 10 10 8 9 6 5 9 19 15 2 4 7 7 7 11 17 21 19 18 18 19 18 17 17 17 19 16 12 10 7 2 7 5 7 11 12 13 12 10 10 10 10 9 10 13 11 10 14 13 11 11 10 12 13 14 15 16 16 16 17 16 16 17 16 16 15 14
23 23 23 24 23 23 22 22 22 22 21 21 22 22 20 19 17 17 18 18 13 9 9 8 6 4 4 10 18 16 5 5 7 8 10 12 16 18 17 17 17 18 19 17 16 15 16 12 9 13 13 9 5 6 4 10 11 11 10 7 8 8 8 9 8 10 10 11 13 8 5 8 10 14 16 15 15 16 16 16 16 16 16 16 16 15 14 14
24 24 24 24 24 24 23 22 23 22 22 21 22 22 21 19 17 17 18 18 15 11 8 7 6 4 6 11 10 11 12 7 6 10 12 14 16 17 17 18 18 19 19 18 15 13 13 11 10 14 16 17 8 6 2 8 10 8 8 6 6 5 6 10 8 8 8 9 10 5 2 7 11 14 16 15 15 14 15 15 15 15 16 15 16 15 14 15
24 24 24 24 24 24 23 23 22 22 22 21 21 22 21 20 18 18 17 18 17 13 9 6 6 4 8 15 10 10 15 10 9 13 14 17 19 18 19 19 19 20 19 17 16 13 13 12 13 13 15 19 11 8 7 6 7 7 6 5 5 2 5 10 10 9 7 6 6 4 3 8 11 14 18 17 16 15 14 14 14 15 16 15 15 15 14 15
25 25 24 24 24 24 24 23 22 23 22 21 21 21 22 21 19 19 17 18 17 13 9 4 5 6 9 10 6 11 15 13 13 13 15 19 19 19 20 19 18 18 18 18 16 13 14 14 15 15 14 13 7 8 9 6 5 6 6 6 7 5 6 8 10 9 9 9 7 3 3 8 10 13 18 18 17 17 16 14 15 15 16 15 15 14 14 15
26 26 25 25 24 24 24 23 22 23 22 21 21 21 22 23 21 19 17 17 15 11 9 4 2 9 12 7 5 10 13 15 14 14 17 19 19 19 20 20 18 18 20 18 13 10 15 17 14 13 13 8 5 8 9 8 7 7 6 7 8 9 7 7 10 11 10 8 8 6 4 8 12 14 17 18 17 17 17 17 16 16 16 16 15 14 14 15
26 26 26 25 24 24 24 23 23 22 22 21 21 21 22 24 23 20 15 11 8 7 8 6 4 7 11 14 15 13 13 16 16 16 18 18 19 19 20 20 18 19 20 17 13 13 16 16 13 9 10 8 7 9 8 8 9 9 9 8 7 10 9 7 6 9 10 6 8 7 5 9 14 14 15 17 18 17 16 17 17 17 16 16 16 16 16 16
26 26 26 26 24 24 23 23 22 22 22 20 19 21 22 23 21 13 7 4 4 6 6 9 14 7 7 11 17 13 12 16 16 18 18 19 20 20 21 20 19 21 18 12 13 17 15 13 12 10 9 10 11 11 10 10 12 13 14 10 8 9 9 8 7 9 12 9 9 7 5 10 13 13 15 16 18 17 16 17 18 18 17 17 17 17 17 17
25 26 26 26 24 24 23 22 22 21 22 21 20 20 19 17 10 1 3 8 12 15 18 13 19 18 14 7 14 14 14 16 16 18 19 19 21 22 22 21 20 19 15 11 12 17 16 10 10 10 10 12 14 16 16 13 13 15 14 9 10 10 9 13 12 11 11 8 9 11 8 10 12 12 14 15 16 15 16 16 17 18 18 18 18 18 18 17
25 26 26 26 25 24 22 22 20 19 20 21 20 18 16 14 9 6 5 11 18 21 27 23 18 21 18 8 11 17 17 15 16 19 19 20 21 20 21 22 17 13 14 15 13 15 15 10 11 14 13 14 16 17 18 16 14 13 9 7 11 11 9 15 14 10 11 8 6 11 11 10 12 12 14 15 13 12 16 17 17 19 18 18 18 19 19 17
24 25 26 26 24 23 22 21 19 17 18 19 20 18 17 16 14 13 13 14 19 21 24 25 24 22 16 11 10 17 16 14 17 19 20 23 20 17 20 20 14 11 14 16 12 12 12 11 14 16 15 15 15 17 18 18 16 11 7 7 9 9 9 13 13 11 10 6 5 8 8 8 10 11 12 15 13 12 16 17 16 19 18 18 18 20 20 19
23 24 25 25 24 23 21 20 16 14 16 18 17 15 15 16 15 15 15 14 17 21 20 21 24 22 18 15 11 16 16 15 18 21 23 24 22 20 20 17 14 14 15 15 13 11 9 12 16 16 15 16 15 15 16 15 11 9 9 7 7 10 10 9 11 13 11 7 5 7 6 6 10 10 10 14 15 13 16 17 16 18 18 18 18 20 21 21
23 24 25 25 25 23 20 18 12 8 13 16 14 12 13 15 14 15 16 14 14 18 22 21 22 22 20 17 13 16 19 17 18 22 25 25 24 21 18 17 16 14 14 17 18 14 11 14 18 17 15 16 15 14 14 12 7 7 12 9 7 10 11 11 13 13 12 9 8 7 6 5 7 7 8 12 14 13 15 16 16 17 18 18 18 20 21 21
22 23 24 24 24 23 20 15 7 5 12 14 12 13 13 11 11 12 13 12 11 13 19 21 22 22 21 19 16 17 18 18 20 22 26 27 24 18 16 18 15 12 16 20 19 15 14 16 17 16 15 17 16 14 15 12 7 8 13 15 13 9 11 16 18 13 9 8 9 9 6 4 5 3 5 6 8 12 14 16 16 17 18 18 19 20 21 21
22 22 23 23 24 24 19 11 6 9 14 12 9 11 10 8 9 13 11 8 7 10 13 16 18 18 22 21 19 18 15 16 21 23 25 27 26 19 13 14 12 13 17 17 13 9 12 18 17 15 16 18 16 12 13 13 9 7 11 16 18 11 15 18 20 15 7 6 11 12 9 5 6 5 6 2 5 10 12 14 16 18 18 18 19 20 21 22
22 22 23 22 21 23 21 13 10 13 16 14 13 13 11 11 12 12 9 6 6 8 11 16 14 15 22 23 21 16 10 13 20 24 26 26 27 23 15 12 11 13 14 12 9 8 13 18 18 16 18 16 14 10 9 12 10 8 11 17 14 13 15 14 13 14 7 6 10 14 12 7 5 10 11 7 5 10 11 12 14 17 20 20 20 20 22 23
22 21 23 22 18 19 23 21 18 15 15 15 16 14 11 12 14 10 6 6 3 5 9 14 13 12 17 21 23 18 12 15 17 20 27 27 28 24 16 14 13 14 15 12 9 10 13 16 16 18 18 12 10 11 11 13 13 11 7 10 11 12 16 13 6 9 9 7 8 10 13 8 4 10 13 14 12 13 15 16 14 15 19 21 21 21 22 23
22 22 22 22 18 16 21 24 21 16 12 13 17 15 11 12 12 7 6 6 2 4 8 12 13 12 15 17 21 20 18 17 15 18 27 27 28 24 15 15 16 16 17 16 12 10 12 16 15 17 16 11 9 13 16 14 13 12 7 8 12 14 11 10 6 6 7 7 7 8 11 8 5 8 12 14 15 16 16 15 14 17 21 21 22 23 23 24
23 22 21 23 20 15 20 22 15 10 9 12 14 13 13 11 8 7 7 5 4 6 10 10 12 15 16 15 16 19 19 17 17 21 26 25 28 26 18 17 17 14 15 16 14 12 14 17 15 12 12 11 10 13 16 14 14 13 9 11 12 9 6 6 6 6 8 6 8 11 12 11 6 6 11 12 14 14 13 12 14 19 23 24 24 24 24 24
24 22 20 23 21 17 21 17 6 7 7 10 11 11 11 8 6 7 7 4 5 7 12 9 11 16 18 15 13 16 18 15 17 20 19 18 22 22 16 14 12 10 11 12 12 14 17 16 11 9 12 12 12 13 15 17 17 12 7 9 8 3 4 5 7 6 7 7 8 12 13 12 8 6 9 13 17 19 16 14 15 17 21 25 27 26 25 26
25 23 21 21 21 21 23 16 5 6 10 10 12 12 9 7 7 8 7 5 3 7 10 10 13 15 18 17 13 16 17 14 16 18 16 14 15 15 13 10 9 10 10 10 10 13 15 14 13 11 15 16 14 12 12 16 15 11 7 8 7 4 4 6 7 6 7 8 9 12 13 10 9 8 9 11 15 19 17 15 16 21 24 25 28 30 27 27
25 23 22 20 21 24 24 17 12 13 13 11 13 11 7 7 8 9 11 8 4 8 9 11 15 16 17 17 13 16 17 15 15 16 17 16 14 15 17 15 13 11 9 10 11 11 9 8 13 13 13 17 17 11 10 10 8 9 8 6 6 6 6 7 6 6 7 8 11 13 12 8 7 7 10 11 13 18 18 17 19 25 31 28 28 31 29 27
24 23 22 20 22 24 22 17 14 13 11 10 9 8 9 9 9 11 14 12 7 9 10 11 15 18 17 16 14 15 15 14 16 16 15 17 13 13 16 17 17 13 10 10 9 10 10 6 10 12 10 15 17 13 10 10 7 8 8 8 8 8 6 6 6 6 7 8 11 13 10 7 5 1 4 4 6 19 19 17 14 15 24 25 24 29 29 27
24 22 22 22 22 22 19 15 14 12 9 9 8 8 10 9 9 12 12 12 12 10 8 8 13 15 15 15 15 18 15 12 17 18 14 15 13 13 14 15 19 17 12 10 8 10 12 9 12 15 13 16 16 15 12 13 10 9 9 10 10 8 7 6 7 8 7 7 7 7 6 5 2 0 1 1 4 12 11 11 11 8 13 18 18 22 25 25
23 20 21 21 20 18 15 13 14 12 11 10 8 8 10 9 9 11 9 11 13 8 6 7 12 12 12 12 13 19 19 14 16 16 12 15 15 16 15 13 18 20 15 10 6 8 11 9 15 19 16 17 17 16 12 10 8 8 9 11 11 10 9 7 8 9 8 7 6 5 6 5 4 3 7 8 5 7 4 3 7 8 12 16 17 20 22 25
22 21 21 20 19 15 14 14 13 14 14 11 9 9 9 11 15 15 12 13 12 8 10 9 10 11 11 11 12 17 19 15 14 13 11 14 14 17 18 15 19 22 20 15 8 8 10 8 16 22 18 18 21 20 16 11 11 8 9 11 11 10 8 5 6 7 7 8 6 7 9 8 6 4 7 13 9 8 7 3 5 10 11 10 15 23 28 28
22 22 21 20 17 13 16 17 12 15 15 10 11 13 11 13 18 20 19 19 15 10 10 9 8 11 13 11 11 17 18 13 13 13 11 11 12 17 19 15 18 22 25 23 12 9 11 8 12 23 19 16 20 18 15 14 16 13 9 11 9 7 8 7 6 5 6 7 6 7 9 8 6 4 8 13 11 10 11 6 6 9 12 12 11 15 25 27
20 18 17 16 11 16 20 17 14 16 14 9 10 12 12 15 20 24 25 21 16 11 10 11 9 11 13 13 12 16 18 15 13 11 11 10 10 18 20 15 17 22 26 25 13 7 9 8 6 19 20 15 14 12 11 11 14 14 12 9 6 6 8 7 5 3 6 6 5 7 7 4 3 5 12 13 10 9 11 10 7 6 10 15 13 11 16 25
15 11 12 7 10 20 22 17 15 15 11 9 11 11 12 15 19 27 31 24 16 11 9 12 11 10 12 16 15 14 16 16 15 12 10 11 11 16 21 18 16 21 26 25 16 9 8 8 5 12 17 15 10 10 12 11 11 11 10 9 7 6 6 5 5 6 7 7 5 6 4 2 3 4 12 12 8 6 6 7 6 4 4 9 15 11 12 23
11 9 11 5 15 21 20 15 12 12 9 9 12 13 14 15 16 22 29 27 18 13 12 14 12 8 9 12 14 13 13 14 16 13 9 13 13 11 17 20 16 18 21 19 15 11 8 7 7 9 11 11 11 13 16 16 14 12 9 9 9 7 6 6 5 7 7 6 5 6 3 5 5 5 9 9 7 8 6 4 6 8 6 4 10 11 10 16
8 8 7 9 16 17 16 11 9 11 9 11 14 16 17 16 16 18 22 23 17 13 14 14 13 11 10 10 12 14 13 13 14 14 10 14 16 11 16 25 23 19 17 13 14 15 11 6 8 9 9 12 15 17 17 17 18 14 11 10 9 8 6 6 6 5 5 6 6 7 3 4 6 5 7 7 6 9 10 4 3 8 9 4 3 8 10 12
10 13 10 9 15 15 13 8 9 10 10 13 18 21 21 17 15 16 18 18 15 12 13 12 12 12 12 13 13 14 15 13 15 16 14 14 17 15 19 27 26 21 15 12 13 15 10 6 7 8 7 11 14 14 15 16 16 14 11 12 11 10 9 9 7 4 5 8 8 6 3 4 4 4 7 7 6 8 11 5 1 4 9 6 3 4 8 13
16 20 19 13 14 16 13 8 9 10 11 15 18 20 23 20 17 17 16 14 12 10 11 12 13 13 12 14 14 15 15 12 15 19 17 12 14 19 24 27 25 20 14 12 12 11 9 5 5 6 7 9 10 9 11 15 12 10 11 13 16 16 15 12 8 4 5 7 7 6 4 5 4 4 6 6 4 3 6 7 5 4 7 5 5 6 7 11
16 15 18 19 16 18 16 12 11 10 11 16 18 18 20 19 20 22 17 13 13 13 12 12 15 15 13 14 15 15 16 13 10 15 16 14 13 18 25 25 21 20 17 15 15 12 9 7 5 7 8 10 10 8 9 11 11 10 13 16 18 20 19 12 6 5 6 5 5 5 2 6 6 4 4 3 3 2 2 4 6 6 7 3 3 7 9 11
10 6 10 15 18 20 19 19 19 14 11 13 14 16 18 17 18 20 15 11 14 16 16 14 16 16 15 15 16 14 14 15 11 8 12 15 12 13 20 23 24 23 17 13 15 12 8 8 9 7 8 10 9 7 10 12 11 13 15 18 17 16 17 12 7 7 6 5 5 6 6 9 9 8 4 3 5 3 3 4 2 3 8 6 4 6 8 11
6 6 6 5 9 16 17 18 19 14 13 14 9 10 17 19 17 15 12 11 15 18 17 16 16 16 14 16 16 13 12 14 14 13 13 14 12 13 19 24 25 18 7 7 15 12 7 9 13 13 12 15 16 12 11 12 12 13 15 17 17 17 17 14 11 8 7 6 6 8 12 12 11 11 9 7 8 7 5 5 5 6 6 7 8 9 8 10
6 12 15 11 6 9 8 11 15 14 18 18 10 10 15 18 17 12 12 14 18 19 15 13 17 18 15 15 13 11 11 12 14 13 10 12 13 12 16 21 18 16 12 11 17 11 7 10 15 18 17 17 20 20 17 14 13 15 16 17 19 19 20 18 15 12 8 6 5 6 11 11 10 11 11 9 6 3 1 2 4 6 6 7 9 12 13 13
10 14 17 17 13 12 14 15 15 13 16 16 11 12 14 14 16 15 12 13 14 17 16 14 15 17 18 16 11 8 10 10 12 10 9 9 9 6 8 15 13 15 12 15 13 9 7 9 14 16 15 15 19 22 23 21 16 16 18 19 19 20 21 20 19 19 15 11 10 10 10 9 7 7 7 4 3 3 2 4 6 7 7 9 10 12 15 15
12 11 15 22 19 16 19 19 14 10 11 12 11 12 14 15 15 13 14 14 11 13 16 16 17 16 17 18 14 13 12 7 9 10 10 12 10 9 6 9 11 13 14 12 9 9 8 7 10 12 12 16 21 21 21 21 19 17 18 20 21 21 21 20 18 18 17 14 11 8 5 5 5 5 5 7 7 3 3 4 7 8 9 10 14 15 13 15
16 13 14 17 14 12 15 14 11 8 8 8 8 9 11 15 13 9 10 12 13 13 12 14 16 14 15 18 15 13 12 6 7 10 10 12 10 7 6 7 8 10 12 11 10 10 10 8 9 9 10 13 15 17 19 20 21 21 20 23 24 20 16 15 14 14 15 9 4 3 5 5 4 5 7 7 5 5 6 6 8 8 9 11 14 15 12 12
20 16 12 12 10 11 12 10 8 7 7 8 9 10 12 14 14 12 8 8 12 16 12 9 9 7 11 12 5 5 8 8 10 12 13 15 14 10 9 9 9 11 10 10 10 8 8 8 8 9 10 10 14 19 20 18 17 16 15 19 19 15 14 13 13 14 12 5 3 4 5 3 1 1 4 4 2 4 3 4 5 4 6 7 9 9 9 11
Wind_Direction
341 341 340 342 341 341 340 339 338 337 335 335 336 335 334 334 332 331 330 326 319 313 307 303 297 290 287 285 283 281 283 283 281 278 265 246 229 230 235 238 245 246 244 243 232 239 249 255 253 247 245 231 237 239 206 230 264 260 264 272 46 58 66 104 127 142 133 126 131 122 116 114 114 111 104 116 118 111 115 107 109 111 114 122 126 132 134 135
339 339 339 340 340 340 339 338 337 336 334 333 334 333 332 330 328 329 330 326 320 314 308 302 295 288 285 282 282 281 281 282 282 274 256 239 223 225 230 233 238 241 235 225 221 233 242 240 228 232 240 230 219 210 213 227 237 253 281 58 49 55 55 84 125 136 128 125 125 121 121 116 122 114 97 96 113 113 108 102 108 110 115 123 128 135 136 139
338 338 337 338 338 339 338 337 336 335 333 331 331 331 329 328 327 328 329 327 321 317 311 302 294 287 283 280 280 279 283 289 283 270 254 236 225 222 225 230 232 236 232 218 220 231 246 252 246 226 236 244 217 183 205 217 230 263 299 117 76 75 73 76 99 108 118 126 122 123 123 124 132 121 116 132 122 117 121 117 120 122 127 132 134 138 141 144
336 336 336 336 336 337 337 336 335 333 332 330 330 330 328 327 325 327 330 328 324 320 314 302 293 286 279 276 274 276 289 293 279 267 255 237 225 218 220 225 223 230 225 199 220 239 249 265 271 229 232 245 222 192 184 170 231 336 50 76 83 84 103 99 103 109 116 113 109 122 124 121 119 117 127 138 132 128 135 134 135 136 136 138 140 143 146 147
334 334 334 334 335 335 335 334 334 332 331 329 329 328 327 326 324 327 331 330 327 324 317 305 297 286 274 272 267 268 280 289 302 270 234 218 219 215 215 219 217 222 208 189 224 248 243 256 258 235 240 243 213 195 205 177 297 88 79 85 98 94 106 105 105 104 108 109 115 121 106 96 91 90 93 92 82 161 139 139 137 138 140 141 144 146 149 150
332 333 332 333 333 333 334 333 332 331 330 328 329 328 326 326 325 327 331 331 328 325 320 309 304 288 273 266 260 258 249 247 18 358 217 204 214 214 211 212 211 205 191 193 227 244 235 241 247 234 228 236 230 219 201 144 329 169 97 82 97 100 99 99 105 108 114 115 115 106 98 101 99 96 96 105 186 208 132 135 136 138 141 142 146 149 151 153
330 331 330 331 331 332 332 331 331 330 329 328 328 329 326 326 325 327 332 331 327 324 319 311 304 287 272 260 260 252 240 255 283 292 239 209 213 209 206 206 201 193 189 198 225 234 227 227 237 234 227 230 226 199 163 144 300 106 107 114 105 104 110 111 111 105 99 97 102 106 104 104 101 103 105 122 159 149 123 131 136 138 140 142 147 150 152 154
328 329 329 330 330 331 331 330 330 330 329 327 327 328 326 326 325 327 331 329 325 321 314 310 305 289 267 250 257 258 247 254 262 256 250 241 221 203 200 198 193 191 190 199 220 227 220 223 228 230 240 246 216 184 126 162 138 99 109 119 110 115 119 110 101 100 106 110 111 107 98 94 96 101 97 105 122 121 123 132 136 138 141 143 147 149 152 157
327 327 327 328 329 329 329 329 329 328 329 327 326 328 326 326 325 327 330 327 320 315 311 313 311 294 262 243 247 268 258 238 222 233 249 254 225 199 195 193 191 189 194 206 220 229 221 222 223 224 255 281 204 143 121 222 136 107 126 120 121 129 121 115 111 106 107 108 105 101 99 104 107 107 102 104 115 122 130 134 136 141 143 145 148 148 152 160
326 326 326 327 327 328 328 327 327 328 328 326 326 327 326 325 324 326 328 324 315 308 309 313 317 303 258 239 239 256 249 195 209 240 256 258 216 191 191 191 192 189 197 212 216 228 224 216 220 222 261 276 186 139 183 222 118 113 150 137 131 131 124 120 112 107 107 110 112 114 116 118 118 113 110 117 124 131 135 137 142 144 144 149 149 147 158 165
325 325 324 325 326 326 327 326 325 326 326 326 325 325 325 324 322 324 327 323 310 304 305 309 322 303 237 228 242 239 212 191 209 221 249 248 202 186 186 186 193 192 198 213 215 227 226 222 236 226 243 260 181 167 171 166 130 139 157 133 133 147 134 120 116 123 127 123 124 128 125 120 116 110 119 130 136 142 142 143 148 149 147 150 147 149 164 168
323 323 323 324 324 325 325 325 324 324 325 325 324 324 323 321 321 321 324 321 307 300 300 305 322 297 221 238 239 223 200 239 201 180 219 223 197 186 184 184 194 198 199 211 216 227 232 238 263 240 222 224 182 159 125 148 145 145 150 138 151 161 141 137 142 135 129 124 129 133 126 115 111 116 127 137 143 146 146 150 152 151 150 149 148 156 169 169
321 322 322 322 323 323 324 323 322 321 322 323 323 322 319 319 319 317 321 320 307 295 294 297 314 302 237 253 241 217 215 256 211 191 203 202 194 188 187 190 195 201 205 213 216 223 236 252 275 239 236 255 196 94 94 158 138 138 157 161 162 166 161 153 143 138 137 131 130 135 128 115 119 129 137 145 150 150 150 154 156 152 152 152 153 163 171 169
320 321 321 321 321 322 322 322 321 319 320 322 321 320 317 315 314 314 317 316 306 290 286 287 296 305 246 261 265 217 209 226 212 200 196 189 189 189 193 197 198 202 210 219 221 223 233 245 264 245 239 250 214 118 207 165 129 158 171 160 170 181 175 150 149 169 158 144 144 162 178 122 128 140 142 144 147 153 155 155 158 155 155 156 159 169 171 168
319 319 319 319 320 320 321 321 319 318 317 319 320 318 315 311 308 310 312 313 306 283 271 279 287 292 255 267 277 210 204 218 222 206 195 187 184 188 193 197 200 204 212 223 228 227 224 228 250 248 237 247 231 168 198 161 142 184 163 169 186 174 184 160 166 181 149 143 160 187 186 129 136 149 148 149 149 153 156 157 165 160 157 162 164 172 170 168
318 318 318 318 318 319 319 319 318 317 315 316 318 316 313 308 304 306 309 311 303 274 253 270 319 307 277 277 249 204 210 218 217 200 191 189 186 187 190 195 203 207 212 222 235 227 209 219 239 241 237 248 239 191 185 161 176 181 162 197 172 157 216 174 164 179 159 152 160 199 196 134 141 154 155 157 153 153 157 163 171 164 160 165 165 173 172 169
317 317 317 316 317 317 318 318 317 315 313 315 316 314 312 305 300 301 302 306 295 261 239 215 338 293 262 253 227 215 211 207 203 191 188 189 190 188 186 194 201 204 208 215 237 224 199 215 230 233 237 235 220 215 194 170 184 171 175 216 173 166 218 187 164 182 180 165 157 179 187 135 144 157 162 165 158 159 163 163 170 167 164 166 167 174 175 171
316 315 316 316 316 316 317 317 316 315 312 313 315 314 311 302 298 296 292 302 293 254 249 220 208 276 252 233 235 227 203 196 191 185 186 187 193 191 186 194 197 198 207 212 224 217 198 208 221 224 227 215 209 224 211 182 182 175 187 216 185 177 205 203 180 178 182 181 154 169 192 145 146 159 168 173 169 165 163 163 169 171 168 170 174 175 173 172
316 315 314 314 315 314 315 316 316 314 311 309 312 312 308 300 294 290 277 269 244 234 254 207 188 232 285 223 217 216 193 185 180 181 186 187 192 190 186 195 197 197 207 206 205 207 198 198 214 225 222 206 205 217 220 198 182 186 199 203 184 190 190 186 214 188 175 189 165 166 206 159 153 167 169 179 182 167 161 167 168 169 170 175 178 174 171 173
315 314 313 313 314 313 313 315 314 314 312 309 312 315 309 303 294 245 170 223 246 263 274 244 198 226 269 225 195 198 178 172 178 184 185 188 191 186 186 194 197 199 207 204 193 199 202 201 207 219 219 204 203 218 227 216 189 191 204 190 178 203 177 169 211 198 173 207 173 155 186 171 161 171 169 179 186 170 163 169 168 168 172 176 176 172 173 176
315 314 313 313 313 313 312 314 313 312 311 305 308 310 298 304 325 346 318 266 265 271 271 265 237 238 260 256 195 181 169 172 188 190 184 190 195 186 184 193 197 196 205 208 197 196 207 214 207 213 219 207 204 217 230 232 218 206 207 184 184 208 185 176 199 187 176 215 184 164 182 172 167 175 173 177 184 178 172 173 173 172 173 176 176 171 173 177
315 313 312 312 312 313 312 314 313 310 308 301 300 297 284 294 318 324 316 293 281 276 264 257 250 247 252 250 194 165 171 183 189 193 185 187 197 189 181 191 201 194 200 208 197 192 209 220 212 211 219 213 205 216 229 237 241 242 229 199 195 206 187 179 180 171 182 205 193 193 185 165 174 180 176 177 183 185 178 177 178 174 173 176 177 172 173 178
315 313 312 312 312 313 313 314 315 311 305 296 291 292 288 293 306 311 304 288 283 279 266 246 237 237 233 228 186 166 192 197 188 192 185 188 199 194 183 190 204 196 196 208 203 195 203 217 219 212 219 225 211 213 230 238 245 267 258 212 195 213 199 169 156 167 192 204 197 202 194 187 184 181 185 184 186 188 182 182 182 178 176 179 181 177 177 178
315 313 311 313 313 312 315 317 322 324 304 290 287 297 298 292 297 311 303 285 278 272 265 248 230 228 223 214 192 186 205 204 194 190 183 190 200 198 193 194 204 203 199 207 209 209 203 211 222 212 211 230 225 207 221 238 223 235 256 241 211 218 198 161 156 176 199 203 202 198 202 208 168 169 200 188 190 196 187 185 185 183 181 182 186 181 180 180
315 314 311 313 314 311 316 321 316 297 288 283 296 310 308 294 292 312 308 287 274 254 250 242 228 222 214 208 198 196 208 205 201 192 181 193 202 198 199 197 204 211 201 205 211 216 211 205 219 222 208 218 232 213 205 225 224 208 235 247 246 219 172 162 163 175 203 197 198 203 210 210 140 159 239 206 206 207 190 189 188 185 184 185 190 184 181 182
315 313 311 313 315 312 316 318 288 279 277 280 317 324 318 315 305 309 302 278 271 244 219 208 207 203 200 202 193 195 212 203 200 195 181 193 205 200 201 197 207 220 203 203 212 220 220 201 201 228 223 211 228 233 202 205 232 220 204 234 257 231 187 182 168 171 212 202 191 198 208 209 146 174 230 250 271 239 204 196 192 185 185 189 194 189 185 185
313 312 310 311 315 316 313 305 292 287 276 285 325 328 319 318 310 306 293 266 259 232 190 173 173 181 193 195 182 188 214 184 191 198 184 190 204 205 212 198 197 223 211 204 211 214 227 207 188 214 232 216 214 232 207 193 225 244 194 201 239 250 233 223 181 174 203 218 204 196 200 220 185 188 199 185 237 256 229 211 197 186 188 194 200 195 188 188
311 310 308 306 312 316 307 300 300 293 278 286 302 299 303 312 304 297 280 266 229 163 160 160 162 182 198 190 177 195 217 178 183 196 183 189 204 205 219 213 201 219 217 214 210 201 223 219 188 199 227 227 199 211 215 201 218 246 230 200 210 241 265 271 218 183 189 212 232 203 193 224 219 175 183 187 202 227 225 214 199 192 196 198 203 202 193 193
309 307 306 302 304 306 297 295 297 293 287 286 281 279 296 305 297 285 254 260 240 147 149 159 166 183 198 185 179 203 217 192 186 184 176 189 206 211 227 226 214 214 216 225 223 199 212 228 213 200 217 226 193 205 216 210 220 229 244 259 223 207 238 269 257 241 230 218 240 228 198 217 238 165 172 193 202 213 217 208 195 199 209 206 205 208 200 194
304 303 304 299 299 301 292 292 304 321 316 294 283 289 300 290 275 257 230 244 263 183 152 155 168 177 189 184 183 206 215 202 189 177 175 186 202 214 231 231 227 223 216 223 231 217 206 220 232 218 212 216 197 207 218 213 227 230 218 242 237 185 182 265 265 273 280 242 239 249 212 198 229 193 181 195 202 207 207 204 201 201 208 207 205 209 205 196
300 299 299 295 294 294 285 283 330 11 324 298 297 298 289 265 244 252 225 222 263 187 152 162 174 174 188 189 185 205 212 206 191 176 175 184 193 208 224 224 228 233 220 215 227 230 214 205 220 227 215 213 202 206 218 214 216 228 222 229 244 171 144 246 244 238 264 252 244 255 228 207 235 233 198 194 193 195 196 200 204 198 203 206 202 207 208 198
297 295 292 289 288 282 273 270 273 270 259 274 299 297 275 236 226 242 228 221 223 172 168 183 178 177 192 195 192 200 206 208 195 179 177 187 190 198 213 214 204 213 219 209 209 226 228 204 186 200 212 216 212 198 211 221 206 199 219 226 232 220 188 217 230 216 235 250 245 254 251 234 247 246 217 209 196 189 193 204 202 194 201 208 202 201 205 199
295 294 290 284 279 272 268 271 271 262 259 271 289 285 257 237 232 229 235 238 170 163 193 189 179 184 191 196 199 196 201 206 194 181 180 191 196 194 209 220 210 211 220 208 205 213 225 199 178 191 205 211 221 209 196 217 200 182 211 225 215 217 207 205 225 232 235 247 238 243 258 258 258 235 205 226 212 178 187 212 208 197 197 204 201 195 200 200
294 295 292 281 272 269 268 271 266 259 261 262 267 257 234 236 242 235 238 238 217 208 212 186 179 188 191 201 201 191 201 205 189 185 183 189 202 196 203 218 215 217 221 208 207 203 206 199 185 200 200 193 219 237 204 190 195 196 210 226 223 221 222 207 215 233 231 240 232 224 233 238 260 236 165 237 186 159 180 202 192 184 185 193 200 191 195 202
297 297 292 280 270 267 266 263 255 246 239 235 242 240 228 228 236 241 243 237 236 239 230 192 183 188 194 206 203 192 203 210 189 191 195 191 203 202 197 210 213 215 220 210 202 199 210 212 187 201 206 184 207 243 216 184 195 201 204 233 235 208 207 224 239 248 249 259 245 226 233 211 188 93 160 348 99 144 179 185 151 139 160 177 192 185 190 204
302 298 292 281 271 269 264 251 241 227 213 218 232 230 226 231 234 236 240 234 238 263 283 228 199 197 195 201 208 194 198 215 195 187 201 198 201 208 201 202 208 215 224 216 192 191 213 210 175 189 209 189 196 234 227 188 194 192 191 228 246 225 211 220 240 249 257 270 256 229 251 228 191 228 204 189 167 150 164 193 165 152 150 162 169 172 193 212
309 305 295 277 263 259 250 242 228 207 202 213 232 235 230 233 237 242 256 258 256 280 294 256 207 208 202 193 210 197 189 207 199 182 201 202 198 209 209 203 204 214 228 227 207 195 220 225 173 179 201 191 190 222 234 212 207 202 188 205 233 256 256 244 240 234 228 246 244 217 232 228 210 229 182 168 169 155 147 221 207 153 145 170 174 175 195 210
317 316 301 276 253 223 221 232 214 190 199 215 234 242 243 240 241 245 255 266 266 256 264 261 210 207 213 198 203 200 188 194 197 190 201 202 195 202 207 208 201 209 227 230 224 200 213 240 178 173 191 190 183 212 234 220 216 224 220 202 203 239 250 238 243 253 241 246 252 235 238 240 226 197 142 147 159 159 153 179 209 162 157 184 197 193 197 197
326 321 299 278 237 192 200 214 199 191 205 220 227 236 243 246 248 250 257 271 279 265 260 267 232 205 219 217 205 199 192 194 201 198 200 198 189 194 202 210 200 205 222 227 230 218 213 250 199 169 182 189 177 198 224 217 217 231 244 235 219 231 239 231 215 237 268 260 249 245 242 253 252 155 138 148 166 166 156 162 182 180 168 175 188 211 204 187
326 303 283 272 173 178 191 195 194 201 214 221 226 235 238 242 249 253 258 265 269 260 256 264 243 207 222 229 218 204 193 196 206 203 194 192 184 187 199 209 202 202 217 222 225 233 225 241 227 169 179 196 183 187 214 216 208 218 239 245 233 222 220 219 191 193 239 252 247 253 240 71 32 111 128 137 145 131 126 139 143 169 209 178 173 194 208 189
316 279 270 206 155 170 183 187 201 214 220 223 230 240 242 245 249 248 250 253 255 248 244 259 263 248 244 240 231 220 198 193 209 211 193 192 197 195 198 208 208 199 210 221 220 225 222 213 210 176 178 211 205 184 203 225 221 206 210 231 240 229 210 216 205 187 218 249 254 257 243 89 67 80 107 119 133 127 118 121 141 164 202 183 160 184 208 196
296 262 253 181 166 174 180 190 218 217 220 228 229 238 245 249 252 249 246 246 249 244 234 246 263 263 267 266 257 244 218 195 204 214 205 197 206 208 193 200 211 205 203 214 217 222 225 205 205 193 186 222 220 189 188 222 242 233 209 211 236 243 224 226 223 188 201 233 236 247 246 109 100 105 113 113 120 127 124 125 174 158 157 152 165 197 199 194
275 271 271 196 184 196 200 215 231 217 224 234 232 239 245 245 246 249 249 241 235 233 229 238 253 251 255 265 268 261 240 211 196 210 223 212 207 212 198 195 206 211 204 204 210 216 223 225 224 212 200 218 217 192 182 205 238 251 224 203 219 238 234 235 237 210 211 226 224 233 219 128 94 86 108 104 106 128 127 123 240 134 133 152 199 218 195 188
295 285 276 243 205 210 222 231 229 221 226 231 233 240 243 244 241 239 244 247 243 240 231 232 245 247 246 252 261 271 264 232 191 199 222 223 207 212 208 197 202 214 208 193 196 201 206 218 232 228 219 209 201 194 195 196 208 241 242 215 208 217 226 237 243 217 222 238 234 234 203 129 87 64 90 103 116 128 126 143 170 145 131 158 186 197 203 190
304 284 261 245 219 216 231 238 237 238 228 226 233 239 238 242 241 233 233 242 247 254 250 235 236 242 245 247 254 267 277 272 218 199 214 221 209 213 212 199 199 220 220 195 189 202 206 200 215 236 232 217 198 195 215 209 193 210 240 236 217 209 212 222 232 217 215 217 224 241 201 121 132 131 98 111 138 6 318 199 182 161 156 176 203 193 199 194
302 289 251 237 218 218 231 240 245 254 247 234 234 238 238 239 234 225 223 232 235 243 257 252 237 235 235 241 250 253 263 275 271 239 225 218 208 215 215 199 196 214 224 200 191 208 221 205 208 224 236 243 233 206 214 224 207 195 215 237 241 232 221 213 216 229 212 178 199 209 165 148 167 177 167 164 164 172 257 245 236 184 176 187 209 201 196 191
282 298 295 282 230 223 224 230 238 248 253 250 249 245 247 247 234 210 200 226 236 234 247 257 249 241 230 229 241 253 258 267 275 274 253 226 215 219 217 209 199 187 167 194 204 210 231 222 214 209 212 239 256 250 232 231 225 211 211 224 237 246 244 235 231 226 189 179 212 189 166 171 186 191 195 193 185 183 183 191 233 250 222 203 204 199 198 197
282 300 305 334 316 248 239 239 239 239 239 242 247 248 250 254 251 225 198 215 229 228 235 251 251 253 252 238 237 252 258 255 259 271 267 239 233 230 219 215 195 145 133 205 213 208 235 239 229 220 210 222 247 259 260 249 231 226 228 228 226 231 240 244 247 241 210 198 222 181 173 188 196 204 209 199 198 226 200 185 241 258 253 243 227 205 199 202
318 316 312 332 327 295 298 291 274 261 245 239 239 242 249 256 254 247 227 212 216 222 227 236 242 249 255 248 237 242 253 257 261 281 314 299 286 292 242 219 185 144 167 218 217 195 221 245 240 233 224 220 228 241 252 254 242 229 231 235 233 229 231 236 244 247 241 233 229 213 202 202 205 225 241 244 260 272 273 275 283 286 280 275 263 233 210 203
341 331 318 325 319 302 300 292 282 274 250 239 236 234 243 250 246 243 235 219 216 224 224 229 239 246 252 250 239 228 232 259 286 296 320 321 330 355 314 243 203 176 185 214 220 189 196 238 240 232 235 231 224 225 237 247 251 245 239 240 239 232 228 229 234 242 244 241 239 241 231 202 194 207 230 261 269 218 177 249 270 278 281 277 271 262 236 209
340 324 311 315 308 299 304 293 278 272 251 243 245 236 240 250 251 253 245 232 232 234 232 237 240 245 260 262 251 235 229 251 304 306 313 315 323 340 315 273 239 212 194 202 217 197 188 217 232 231 240 239 235 234 231 233 242 245 244 244 241 235 231 230 228 236 242 237 231 266 262 231 202 195 207 232 233 151 159 221 235 246 263 259 259 263 255 231
343 334 324 319 299 284 289 283 273 273 256 248 252 247 246 249 250 253 252 240 236 233 233 250 254 251 265 268 280 326 304 299 305 306 307 307 305 294 275 261 246 240 224 210 217 214 205 212 220 232 239 234 237 241 238 235 237 239 246 251 248 245 250 250 243 240 238 227 213 235 241 233 202 243 263 266 218 159 194 240 243 267 294 283 267 258 255 258